This is the latest recevied weather packets stored in our database for station/object KB1JDX. If no packets are shown the sender has not sent any weather packets the latest 10 day(s).
| Time | Temp. | Humidity | Pressure | Rain* | Wind** | Luminosity | Snow |
|---|---|---|---|---|---|---|---|
| 1788564726 | 22.78° C | 38% | 1008.9 hPa | 0 mm | 0 m/s | - | - |
| 1788564663 | 22.78° C | 39% | 1008.9 hPa | 0 mm | 0 m/s | - | - |
| 1788563526 | 23.33° C | 46% | 1009 hPa | 0 mm | 0 m/s | - | - |
| 1788562326 | 23.89° C | 53% | 1008.8 hPa | 0 mm | 0 m/s | - | - |
| 1788561129 | 25° C | 54% | 1008.7 hPa | 0 mm | 0 m/s | - | - |
| 1788561063 | 25° C | 54% | 1008.7 hPa | 0 mm | 0 m/s | - | - |
| 1788559926 | 25.56° C | 54% | 1008.5 hPa | 0 mm | 0 m/s | - | - |
| 1788558726 | 26.11° C | 54% | 1008.4 hPa | 0 mm | 0 m/s | - | - |
| 1788557527 | 27.22° C | 54% | 1008.5 hPa | 0 mm | 0 m/s | - | - |
| 1788557463 | 27.22° C | 54% | 1008.5 hPa | 0 mm | 0 m/s | - | - |
| 1788556326 | 27.78° C | 51% | 1008.6 hPa | 0 mm | 0 m/s | - | - |
| 1788555125 | 28.33° C | 50% | 1008.4 hPa | 0 mm | 0 m/s | - | - |
| 1788553927 | 28.33° C | 48% | 1008.4 hPa | 0 mm | 0 m/s | - | - |
| 1788553863 | 28.33° C | 50% | 1008.4 hPa | 0 mm | 1.79 m/s, 321° | - | - |
| 1788552726 | 29.44° C | 49% | 1008.5 hPa | 0 mm | 0 m/s | - | - |
| 1788551527 | 29.44° C | 49% | 1008.5 hPa | 0 mm | 0 m/s | - | - |
| 1788550327 | 29.44° C | 47% | 1008.6 hPa | 0 mm | 0 m/s | - | - |
| 1788550263 | 29.44° C | 47% | 1008.5 hPa | 0 mm | 0 m/s | - | - |
| 1788547927 | 27.78° C | 50% | 1008.7 hPa | 0 mm | 0 m/s | - | - |
| 1788546726 | 27.78° C | 49% | 1008.9 hPa | 0 mm | 0 m/s | - | - |
| 1788546663 | 27.78° C | 49% | 1008.8 hPa | 0 mm | 0 m/s | - | - |
| 1788545526 | 28.33° C | 47% | 1008.8 hPa | 0 mm | 0 m/s | - | - |
| 1788544326 | 28.33° C | 48% | 1008.6 hPa | 0 mm | 0 m/s | - | - |
| 1788543126 | 27.78° C | 47% | 1008.9 hPa | 0 mm | 0 m/s | - | - |
| 1788543063 | 27.78° C | 47% | 1009 hPa | 0 mm | 0 m/s | - | - |
* Rain latest hour (hover to see other rain measurements)
** Current wind speed in m/s (hover to see current wind gust speed)